�������l�o���
Date,Time,MP-1(��Sv/h),MP-2(��Sv/h),MP-3(��Sv/h),MP-4(��Sv/h),MP-5(��Sv/h),MP-6(��Sv/h),MP-7(��Sv/h),MP-8(��Sv/h),����,����(m/s),���J
2020/08/21,00:00,0.711,1.017,0.641,1.239,0.902,0.401,0.697,0.652,�k,1.9,��
2020/08/21,00:10,0.712,1.019,0.642,1.241,0.899,0.404,0.698,0.650,�k,1.7,��
2020/08/21,00:20,0.710,1.019,0.640,1.242,0.900,0.402,0.695,0.652,�k,2.0,��
2020/08/21,00:30,0.710,1.019,0.643,1.239,0.901,0.402,0.696,0.652,�k,0.6,��
2020/08/21,00:40,0.709,1.018,0.643,1.240,0.902,0.401,0.697,0.652,-,CALM,��
2020/08/21,00:50,0.710,1.019,0.642,1.240,0.900,0.402,0.696,0.650,�k,1.2,��
2020/08/21,01:00,0.711,1.018,0.642,1.241,0.900,0.401,0.698,0.651,�k�k��,3.6,��
2020/08/21,01:10,0.710,1.020,0.642,1.240,0.900,0.402,0.697,0.650,�k�k��,3.8,��
2020/08/21,01:20,0.709,1.018,0.641,1.243,0.902,0.401,0.696,0.650,�k�k��,3.3,��
2020/08/21,01:30,0.710,1.019,0.641,1.241,0.900,0.400,0.698,0.651,�k�k��,2.0,��
2020/08/21,01:40,0.710,1.019,0.640,1.240,0.902,0.400,0.697,0.649,�k�k��,2.3,��
2020/08/21,01:50,0.711,1.019,0.641,1.240,0.900,0.400,0.696,0.652,�k,2.9,��
2020/08/21,02:00,0.709,1.017,0.641,1.240,0.898,0.401,0.697,0.650,�k�k��,2.9,��
2020/08/21,02:10,0.710,1.018,0.641,1.241,0.899,0.400,0.698,0.650,�k�k��,2.2,��
2020/08/21,02:20,0.708,1.019,0.640,1.241,0.901,0.401,0.695,0.650,�k�k��,2.5,��
2020/08/21,02:30,0.709,1.020,0.640,1.242,0.901,0.401,0.697,0.652,�k��,2.6,��
2020/08/21,02:40,0.709,1.018,0.641,1.238,0.901,0.401,0.697,0.650,�k,2.2,��
2020/08/21,02:50,0.709,1.016,0.639,1.243,0.898,0.401,0.697,0.649,�k�k��,1.9,��
2020/08/21,03:00,0.709,1.017,0.640,1.241,0.902,0.401,0.695,0.650,�k��,2.0,��
2020/08/21,03:10,0.709,1.019,0.641,1.239,0.899,0.400,0.696,0.651,�k��,2.3,��
2020/08/21,03:20,0.708,1.017,0.641,1.240,0.900,0.402,0.697,0.651,�k��,2.2,��
2020/08/21,03:30,0.709,1.018,0.641,1.239,0.898,0.401,0.696,0.650,�k�k��,2.0,��
2020/08/21,03:40,0.710,1.015,0.642,1.239,0.900,0.401,0.696,0.651,�k�k��,3.1,��
2020/08/21,03:50,0.710,1.017,0.642,1.240,0.900,0.400,0.695,0.650,�k,2.9,��
2020/08/21,04:00,0.708,1.017,0.642,1.240,0.900,0.399,0.696,0.651,�k�k��,2.3,��
2020/08/21,04:10,0.709,1.018,0.642,1.239,0.901,0.400,0.696,0.651,�k�k��,2.0,��
2020/08/21,04:20,0.708,1.017,0.642,1.238,0.900,0.401,0.695,0.651,�k,3.0,��
2020/08/21,04:30,0.709,1.017,0.640,1.242,0.899,0.400,0.697,0.651,�k,3.0,��
2020/08/21,04:40,0.711,1.017,0.641,1.241,0.900,0.400,0.697,0.650,�k,3.6,��
2020/08/21,04:50,0.707,1.017,0.642,1.241,0.900,0.400,0.696,0.650,�k�k��,3.4,��
2020/08/21,05:00,0.708,1.020,0.641,1.242,0.900,0.400,0.696,0.650,�k�k��,3.3,��
2020/08/21,05:10,0.706,1.018,0.640,1.239,0.900,0.399,0.696,0.651,�k�k��,3.2,��
2020/08/21,05:20,0.708,1.020,0.641,1.240,0.899,0.400,0.698,0.650,�k�k��,3.4,��
2020/08/21,05:30,0.707,1.017,0.638,1.240,0.899,0.400,0.697,0.651,�k�k��,3.3,��
2020/08/21,05:40,0.709,1.016,0.641,1.241,0.897,0.398,0.698,0.651,�k,4.2,��
2020/08/21,05:50,0.710,1.016,0.640,1.240,0.898,0.400,0.695,0.649,�k�k��,4.2,��
2020/08/21,06:00,0.707,1.017,0.641,1.238,0.900,0.399,0.695,0.651,�k�k��,4.1,��
2020/08/21,06:10,0.709,1.017,0.642,1.240,0.903,0.399,0.697,0.651,�k�k��,3.7,��
2020/08/21,06:20,0.707,1.017,0.641,1.238,0.900,0.400,0.696,0.649,�k�k��,3.4,��
2020/08/21,06:30,0.708,1.019,0.643,1.242,0.898,0.399,0.697,0.650,�k�k��,3.5,��
2020/08/21,06:40,0.708,1.017,0.640,1.240,0.897,0.401,0.697,0.649,�k�k��,2.9,��
2020/08/21,06:50,0.711,1.016,0.639,1.238,0.899,0.400,0.697,0.652,�k�k��,3.1,��
2020/08/21,07:00,0.709,1.014,0.641,1.240,0.899,0.401,0.697,0.650,�k�k��,2.9,��
2020/08/21,07:10,0.709,1.014,0.643,1.238,0.900,0.399,0.697,0.651,�k�k��,2.8,��
2020/08/21,07:20,0.711,1.015,0.643,1.239,0.898,0.399,0.694,0.650,�k�k��,2.3,��
2020/08/21,07:30,0.710,1.015,0.641,1.240,0.898,0.401,0.697,0.649,�k�k��,2.3,��
2020/08/21,07:40,0.710,1.016,0.641,1.241,0.898,0.401,0.697,0.651,�k�k��,2.2,��
2020/08/21,07:50,0.708,1.016,0.642,1.239,0.897,0.401,0.696,0.649,�k�k��,1.9,��
2020/08/21,08:00,0.709,1.015,0.639,1.241,0.897,0.401,0.696,0.651,�k�k��,2.3,��
2020/08/21,08:10,0.708,1.015,0.637,1.241,0.897,0.398,0.696,0.652,�k�k��,2.6,��
2020/08/21,08:20,0.709,1.015,0.639,1.241,0.897,0.399,0.698,0.653,�k�k��,2.6,��
2020/08/21,08:30,0.710,1.012,0.639,1.240,0.899,0.399,0.699,0.652,�k��,2.2,��
2020/08/21,08:40,0.709,1.011,0.639,1.240,0.898,0.398,0.698,0.650,�k�k��,3.5,��
2020/08/21,08:50,0.708,1.024,0.639,1.241,0.897,0.397,0.699,0.649,�k�k��,4.0,��
2020/08/21,09:00,0.710,1.012,0.638,1.240,0.900,0.398,0.698,0.649,�k�k��,4.4,��
2020/08/21,09:10,0.710,1.010,0.640,1.237,0.898,0.399,0.698,0.647,�k�k��,4.7,��
2020/08/21,09:20,0.710,1.012,0.638,1.241,0.898,0.398,0.696,0.648,�k�k��,4.3,��
2020/08/21,09:30,0.706,1.009,0.640,1.242,0.899,0.399,0.697,0.649,�k�k��,4.7,��
2020/08/21,09:40,0.708,1.011,0.639,1.240,0.901,0.398,0.697,0.649,�k�k��,4.2,��
2020/08/21,09:50,0.708,1.010,0.639,1.240,0.899,0.398,0.697,0.650,�k��,3.8,��
2020/08/21,10:00,0.709,1.011,0.638,1.239,0.899,0.396,0.695,0.648,�k��,3.8,��
2020/08/21,10:10,0.709,1.009,0.639,1.242,0.900,0.398,0.695,0.649,���k��,3.4,��
2020/08/21,10:20,0.709,1.013,0.640,1.240,0.899,0.397,0.696,0.648,���k��,2.9,��
2020/08/21,10:30,0.709,1.009,0.640,1.242,0.900,0.398,0.695,0.650,���k��,2.9,��
2020/08/21,10:40,0.709,1.010,0.639,1.241,0.899,0.398,0.696,0.650,��,3.4,��
2020/08/21,10:50,0.707,1.013,0.640,1.241,0.899,0.398,0.695,0.649,��,3.1,��
2020/08/21,11:00,0.709,1.011,0.641,1.241,0.899,0.397,0.695,0.649,���k��,2.9,��
2020/08/21,11:10,0.708,1.011,0.640,1.243,0.900,0.398,0.696,0.649,���k��,3.1,��
2020/08/21,11:20,0.707,1.013,0.640,1.241,0.900,0.398,0.695,0.650,�k��,3.3,��
2020/08/21,11:30,0.709,1.012,0.642,1.243,0.901,0.396,0.696,0.650,�k��,2.6,��
2020/08/21,11:40,0.708,1.013,0.640,1.243,0.900,0.398,0.696,0.650,���k��,2.8,��
2020/08/21,11:50,0.708,1.017,0.641,1.239,0.900,0.398,0.695,0.650,�k��,2.9,��
2020/08/21,12:00,0.708,1.016,0.639,1.237,0.901,0.398,0.696,0.650,�k�k��,3.4,��
2020/08/21,12:10,0.709,1.014,0.640,1.238,0.902,0.399,0.696,0.651,�k��,3.1,��
2020/08/21,12:20,0.710,1.017,0.638,1.238,0.903,0.397,0.696,0.650,�k��,3.0,��
2020/08/21,12:30,0.709,1.017,0.639,1.241,0.902,0.400,0.696,0.651,���k��,2.6,��
2020/08/21,12:40,0.709,1.017,0.640,1.242,0.902,0.397,0.697,0.649,�k��,2.8,��
2020/08/21,12:50,0.709,1.016,0.640,1.240,0.901,0.396,0.696,0.650,���k��,3.2,��
2020/08/21,13:00,0.708,1.014,0.643,1.239,0.902,0.398,0.696,0.649,���k��,3.2,��
2020/08/21,13:10,0.709,1.016,0.642,1.240,0.902,0.398,0.696,0.650,���k��,2.8,��
2020/08/21,13:20,0.709,1.014,0.641,1.242,0.902,0.399,0.696,0.651,��,2.6,��
2020/08/21,13:30,0.711,1.016,0.641,1.243,0.903,0.398,0.695,0.651,���k��,2.6,��
2020/08/21,13:40,0.709,1.014,0.640,1.241,0.903,0.397,0.694,0.651,���k��,3.1,��
2020/08/21,13:50,0.708,1.014,0.643,1.242,0.902,0.400,0.695,0.650,���k��,2.8,��
2020/08/21,14:00,0.709,1.014,0.642,1.243,0.903,0.398,0.698,0.650,���쓌,2.6,��
2020/08/21,14:10,0.711,1.016,0.642,1.243,0.904,0.399,0.697,0.651,���쓌,2.8,��
2020/08/21,14:20,0.710,1.015,0.642,1.242,0.902,0.398,0.698,0.651,��,2.9,��
2020/08/21,14:30,0.709,1.016,0.642,1.245,0.903,0.398,0.697,0.652,���쓌,2.5,��
2020/08/21,14:40,0.709,1.015,0.642,1.243,0.902,0.399,0.697,0.652,���k��,2.8,��
2020/08/21,14:50,0.708,1.015,0.642,1.242,0.905,0.399,0.698,0.652,���k��,2.5,��
2020/08/21,15:00,0.708,1.014,0.639,1.243,0.902,0.399,0.699,0.650,���쓌,2.8,��
2020/08/21,15:10,0.710,1.014,0.641,1.242,0.902,0.397,0.697,0.653,��,2.0,��
2020/08/21,15:20,0.710,1.015,0.641,1.240,0.902,0.399,0.699,0.652,��,2.6,��
2020/08/21,15:30,0.709,1.018,0.640,1.241,0.903,0.399,0.699,0.652,��,2.0,��
2020/08/21,15:40,0.709,1.018,0.642,1.240,0.905,0.398,0.697,0.650,���쓌,2.3,��
2020/08/21,15:50,0.710,1.017,0.642,1.238,0.902,0.398,0.697,0.650,���쓌,2.5,��
2020/08/21,16:00,0.708,1.019,0.640,1.244,0.906,0.398,0.696,0.650,���쓌,2.3,��
2020/08/21,16:10,0.709,1.015,0.639,1.242,0.903,0.398,0.697,0.650,���쓌,1.7,��
2020/08/21,16:20,0.709,1.021,0.642,1.242,0.903,0.397,0.697,0.649,���k��,2.0,��
2020/08/21,16:30,0.711,1.018,0.640,1.240,0.904,0.398,0.696,0.650,��,1.5,��
2020/08/21,16:40,0.710,1.018,0.641,1.241,0.901,0.399,0.696,0.650,���쓌,1.5,��
2020/08/21,16:50,0.709,1.019,0.640,1.242,0.902,0.398,0.696,0.650,��,1.1,��
2020/08/21,17:00,0.709,1.020,0.640,1.241,0.903,0.399,0.697,0.651,��,1.5,��
2020/08/21,17:10,0.709,1.018,0.640,1.242,0.904,0.398,0.698,0.652,���쓌,1.7,��
2020/08/21,17:20,0.709,1.019,0.641,1.241,0.903,0.397,0.697,0.650,���k��,1.7,��
2020/08/21,17:30,0.710,1.016,0.640,1.242,0.903,0.399,0.695,0.652,���k��,1.1,��
2020/08/21,17:40,0.710,1.016,0.640,1.242,0.902,0.397,0.696,0.650,���쓌,1.1,��
2020/08/21,17:50,0.709,1.016,0.639,1.240,0.902,0.398,0.696,0.649,���k��,0.6,��
2020/08/21,18:00,0.710,1.016,0.640,1.240,0.902,0.398,0.695,0.651,���k��,0.6,��
2020/08/21,18:10,0.710,1.018,0.641,1.240,0.901,0.400,0.696,0.649,�k�k��,1.1,��
2020/08/21,18:20,0.708,1.017,0.639,1.240,0.900,0.401,0.697,0.650,�k��,0.6,��
2020/08/21,18:30,0.709,1.019,0.639,1.240,0.902,0.400,0.695,0.650,���쓌,1.1,��
2020/08/21,18:40,0.708,1.016,0.640,1.240,0.900,0.399,0.695,0.648,��,0.9,��
2020/08/21,18:50,0.709,1.019,0.642,1.242,0.902,0.399,0.697,0.650,�k��,0.6,��
2020/08/21,19:00,0.710,1.018,0.641,1.241,0.902,0.401,0.696,0.653,���k��,0.9,��
2020/08/21,19:10,0.710,1.018,0.640,1.243,0.903,0.399,0.695,0.650,���k��,0.6,��
2020/08/21,19:20,0.710,1.019,0.642,1.246,0.902,0.398,0.696,0.650,��,0.9,��
2020/08/21,19:30,0.709,1.019,0.641,1.243,0.904,0.399,0.695,0.651,��,0.9,��
2020/08/21,19:40,0.708,1.016,0.641,1.244,0.903,0.399,0.697,0.651,-,CALM,��
2020/08/21,19:50,0.709,1.019,0.643,1.244,0.905,0.399,0.695,0.649,���k��,1.2,��
2020/08/21,20:00,0.709,1.015,0.642,1.242,0.902,0.400,0.695,0.650,���k��,1.2,��
2020/08/21,20:10,0.710,1.018,0.642,1.242,0.902,0.400,0.697,0.650,��,0.6,��
2020/08/21,20:20,0.707,1.021,0.640,1.242,0.903,0.400,0.696,0.651,���k��,1.2,��
2020/08/21,20:30,0.709,1.021,0.642,1.242,0.903,0.400,0.696,0.649,�k��,0.9,��
2020/08/21,20:40,0.710,1.020,0.642,1.241,0.902,0.399,0.696,0.651,���k��,1.5,��
2020/08/21,20:50,0.709,1.020,0.640,1.242,0.902,0.400,0.697,0.650,���k��,0.6,��
2020/08/21,21:00,0.710,1.021,0.642,1.241,0.904,0.400,0.696,0.650,-,CALM,��
2020/08/21,21:10,0.710,1.018,0.642,1.243,0.904,0.400,0.697,0.651,�k��,1.5,��
2020/08/21,21:20,0.709,1.017,0.641,1.244,0.903,0.398,0.696,0.651,�k�k��,1.2,��
2020/08/21,21:30,0.712,1.021,0.643,1.243,0.903,0.400,0.696,0.650,�k�k��,2.2,��
2020/08/21,21:40,0.710,1.019,0.642,1.242,0.905,0.400,0.698,0.650,�k��,1.5,��
2020/08/21,21:50,0.712,1.021,0.643,1.242,0.905,0.400,0.697,0.651,�k�k��,2.0,��
2020/08/21,22:00,0.709,1.018,0.640,1.242,0.902,0.399,0.697,0.651,�k�k��,2.3,��
2020/08/21,22:10,0.710,1.018,0.642,1.243,0.902,0.400,0.696,0.651,�k�k��,2.3,��
2020/08/21,22:20,0.712,1.016,0.642,1.243,0.902,0.401,0.697,0.651,�k�k��,2.8,��
2020/08/21,22:30,0.710,1.019,0.643,1.243,0.901,0.401,0.696,0.652,�k�k��,2.3,��
2020/08/21,22:40,0.711,1.018,0.643,1.242,0.903,0.400,0.697,0.653,�k,2.6,��
2020/08/21,22:50,0.710,1.019,0.642,1.242,0.902,0.399,0.697,0.651,�k�k��,2.6,��
2020/08/21,23:00,0.710,1.022,0.641,1.243,0.902,0.400,0.696,0.652,�k�k��,2.5,��
2020/08/21,23:10,0.709,1.021,0.642,1.242,0.902,0.398,0.695,0.650,�k,2.6,��
2020/08/21,23:20,0.711,1.021,0.643,1.245,0.901,0.401,0.695,0.651,�k,2.6,��
2020/08/21,23:30,0.710,1.020,0.641,1.243,0.902,0.400,0.696,0.653,�k,3.2,��
2020/08/21,23:40,0.712,1.021,0.641,1.243,0.903,0.400,0.697,0.654,�k�k��,3.0,��
2020/08/21,23:50,0.710,1.020,0.642,1.245,0.902,0.400,0.696,0.650,�k�k��,3.0,��
